Location: Poughquag
(41.6090°N, 73.6820°W)
Time: 14:50:58
(UTC-04:00)

Courier 1B - Pass Details

Date: 07 June 2020
Orbit: 962 x 1209 km, 28.3° (Epoch: 05 July)

Event Time Altitude Azimuth Distance (km) Brightness Sun altitude
Rises 22:13:21 0° 238° (WSW) 3,745 10.6 -15.6°
Reaches altitude 10° 22:16:25 10° 226° (SW) 2,832 9.9 -15.9°
Maximum altitude 22:21:59 26° 172° (S) 1,965 8.6 -16.6°
Enters shadow 22:23:30 24° 153° (SSE) 2,064 8.6 -16.7°
